Location: Unspecified
(0.0000°N, 0.0000°E)
Time: 02:29:06
(UTC+00:00)

COSMOS 2508 - Pass Details

Date: 02 October 2020
Orbit: 1484 x 1504 km, 82.5° (Epoch: 20 October)

Event Time Altitude Azimuth Distance (km) Brightness Sun altitude
Rises 20:06:41 0° 214° (SW) 4,624 ? -34.3°
Reaches altitude 10° 20:10:30 10° 229° (SW) 3,645 ? -35.3°
Maximum altitude 20:16:31 21° 273° (W) 2,895 ? -36.8°
Drops below altitude 10° 20:22:34 10° 318° (NW) 3,646 ? -38.3°
Sets 20:26:28 0° 333° (NNW) 4,626 ? -39.2°
